Weather History for KMCB - August, 2014

Change the Weather History Date:

Sunday, August 3, 2014

  Actual Average Record
Temperature  
Mean Temperature 83 °F -  
Max Temperature 91 °F 90 °F 98 °F (1991)
Min Temperature 75 °F 69 °F 64 °F (1965)
Cooling Degree Days 18    
Growing Degree Days 33 (Base 50)    
Moisture  
Dew Point 70 °F    
Average Humidity 70    
Maximum Humidity 90    
Minimum Humidity 41    
Precipitation  
Precipitation 0.00 in - - ()
Sea Level Pressure  
Sea Level Pressure 29.99 in    
Wind  
Wind Speed 3 mph (ENE)    
Max Wind Speed 9 mph    
Max Gust Speed -    
Visibility 8 miles    
Events Thunderstorm    
Averages and records for this station are not official NWS values.
T = Trace of Precipitation, MM = Missing Value Source: NWS Daily Summary

Daily Weather History Graph

Daily Weather History Graph

Search for Another Location

Airport or City:

Trip Planner

Search our weather history database for the weather conditions in past years. The results will help you decide how hot, cold, wet, or windy it might be!

Date:

Astronomy

Aug. 03, 2014 Rise Set
Actual Time 6:20 AM CDT 7:55 PM CDT
Civil Twilight 5:53 AM CDT 8:21 PM CDT
Nautical Twilight 5:22 AM CDT 8:53 PM CDT
Astronomical Twilight 4:49 AM CDT 9:26 PM CDT
Moon 1:10 PM CDT (8/3) No Moon Set
Length of Visible Light 14h 27m
Length of Day
13h 35m
Waxing Crescent, 47% of the Moon is Illuminated
Aug 3
Waxing Crescent
Aug 3
First Quarter
Aug 10
Full
Aug 17
Last Quarter
Aug 25
New

Hourly Weather History & Observations

Time (CDT) Temp. Heat Index Dew Point Humidity Pressure Visibility Wind Dir Wind Speed Gust Speed Precip Events Conditions
12:53 AM 75.0 °F - 72.0 °F 90% 29.99 in 6.0 mi Calm Calm - N/A   Clear
1:53 AM 77.0 °F - 71.1 °F 82% 29.99 in 7.0 mi NNE 3.5 mph - N/A   Overcast
3:53 AM 75.0 °F - 71.1 °F 87% 29.98 in 6.0 mi Calm Calm - N/A   Clear
4:53 AM 75.0 °F - 71.1 °F 87% 29.99 in 6.0 mi Calm Calm - N/A   Overcast
5:53 AM 75.0 °F - 70.0 °F 84% 30.00 in 6.0 mi NNE 5.8 mph - N/A   Haze
6:53 AM 75.0 °F - 70.0 °F 84% 30.01 in 6.0 mi Calm Calm - N/A   Haze
7:53 AM 75.0 °F - 70.0 °F 84% 30.02 in 6.0 mi NE 3.5 mph - N/A   Haze
8:53 AM 77.0 °F - 70.0 °F 79% 30.02 in 7.0 mi ENE 3.5 mph - N/A   Scattered Clouds
9:53 AM 79.0 °F - 71.1 °F 77% 30.03 in 7.0 mi NE 5.8 mph - N/A   Scattered Clouds
10:53 AM 84.0 °F 89.0 °F 71.1 °F 65% 30.03 in 8.0 mi ENE 3.5 mph - N/A   Mostly Cloudy
11:53 AM 87.1 °F 91.3 °F 69.1 °F 55% 30.02 in 9.0 mi Variable 3.5 mph - N/A   Clear
12:53 PM 87.1 °F 92.0 °F 70.0 °F 57% 30.01 in 9.0 mi ENE 5.8 mph - N/A   Partly Cloudy
1:53 PM 89.1 °F 93.7 °F 69.1 °F 52% 29.98 in 10.0 mi Variable 6.9 mph - N/A   Clear
2:53 PM 91.9 °F 94.1 °F 64.9 °F 41% 29.96 in 10.0 mi NNW 9.2 mph - N/A   Partly Cloudy
3:53 PM 91.0 °F 93.0 °F 64.9 °F 42% 29.95 in 10.0 mi Variable 3.5 mph - N/A   Scattered Clouds
4:53 PM 90.0 °F 92.4 °F 66.0 °F 45% 29.94 in 10.0 mi NNE 4.6 mph - N/A   Mostly Cloudy
5:53 PM 84.9 °F 90.7 °F 72.0 °F 65% 29.94 in 10.0 mi SE 4.6 mph - N/A   Overcast
6:37 PM 82.9 °F 87.5 °F 71.1 °F 67% 29.96 in 10.0 mi East 3.5 mph - N/A Thunderstorm Partly Cloudy
6:53 PM 82.0 °F 86.7 °F 72.0 °F 71% 29.96 in 9.0 mi ESE 6.9 mph - N/A   Clear
7:25 PM 82.0 °F 85.5 °F 69.1 °F 65% 29.97 in 10.0 mi East 4.6 mph - N/A Thunderstorm Mostly Cloudy
7:36 PM 81.0 °F 84.1 °F 69.1 °F 67% 29.99 in 10.0 mi East 3.5 mph - N/A Thunderstorm Thunderstorm
7:51 PM 80.6 °F 83.9 °F 69.8 °F 70% 29.98 in 10.0 mi ENE 5.8 mph - N/A Thunderstorm Overcast
7:53 PM 81.0 °F 84.1 °F 69.1 °F 67% 29.97 in 10.0 mi ENE 4.6 mph - N/A Thunderstorm Overcast
8:16 PM 80.1 °F 82.9 °F 69.1 °F 69% 30.00 in 10.0 mi Variable 4.6 mph - N/A   Overcast
9:53 PM 75.9 °F - 71.1 °F 85% 30.01 in 10.0 mi Calm Calm - N/A   Clear
10:53 PM 75.0 °F - 71.1 °F 87% 30.00 in 9.0 mi Calm Calm - N/A   Clear